Find Starlink 30374

NORAD ID: 57809 Int'l Des: 2023-138 Owner: SPXS Country: US Constellation: starlink operational
LEOCIRCULAR

实时位置

正在加载3D地球...

关于 Starlink 30374

正在加载描述...

即将过境

Passes for default location (London). Set your location on the main map for personalized predictions.

高度历史

Loading altitude history...

两行轨道根数

1 57809U 23138B 26125.85113059 .00001179 00000-0 52344-4 0 9994
2 57809 43.0003 271.0904 0000288 151.2769 208.8099 15.27583182147485
Epoch: May 5, 2026 • Age: 17 hours

当前状态

高度 494.8 km
速度 7.62 km/s
星下点 -38.86°S, 142.46°E
发射日期 Sep 9, 2023
运行时间 2.6 years
类型 internet

技术详情

分类 Payload
质量 730.00 kg
干质量 700.00 kg
总质量 730.00 kg
长度 0.30 m
直径 4.10 m
跨度 29.00 m
形状 Box + pan
制造商 SPXS
平台类型 Starlink V2M
阶段状态 In Orbit
所有者/国家 SPXS/US

Most Searched